• Join FlightAware (Why Join?)
  • Login
  • US Flag GB Flag 
11:15 EST


 

Airport Tracker/Info


-or-


 

Live Flight TrackerFlight Track Log ✈ N789EX ✈ 29-Oct-2013 ✈ KBFI - KBFI

Flight Track Log - Related Links

Times and Time Zones

All times are in EDT time to prevent confusion due to time zone crossing. See the N789EX flight status page for this flight to view local times or setup timezone preferences in your user account.

Time Position Orientation Groundspeed Altitude Reporting Facility
EDT Latitude Longitude Course Direction KTS MPH feet Rate Location/Type
15:43 47.4660 -122.2210 108° East 262 302 4,100  Level FlightAware
15:44 47.4490 -122.1330 106° East 270 311 6,400 3,480 Climbing FlightAware
15:45 47.4640 -122.0730 70° East 266 306 9,100 3,780 Climbing FlightAware
15:45 47.4970 -122.0370 36° Northeast 265 305 11,000 2,580 Climbing FlightAware
15:46 47.5310 -122.0410 355° North 281 323 11,800 900 Climbing FlightAware
15:46 47.5710 -122.0630 340° North 285 328 11,900 60 Climbing FlightAware
15:47 47.6120 -122.0870 338° Northwest 313 360 11,900  Level FlightAware
15:47 47.6570 -122.1150 337° Northwest 319 367 11,900  Level FlightAware
15:48 47.7100 -122.1480 337° Northwest 319 367 11,900  Level FlightAware
15:49 47.7640 -122.1810 338° Northwest 319 367 11,900  Level FlightAware
15:49 47.8140 -122.2120 337° Northwest 319 367 11,900  Level FlightAware
15:50 47.8600 -122.2410 337° Northwest 320 368 11,900  Level FlightAware
15:51 47.9470 -122.2580 353° North 316 364 11,900  Level FlightAware
15:52 47.9960 -122.2230 26° Northeast 317 365 11,900 -240 Level FlightAware
15:53 48.0660 -122.1710 26° Northeast 283 326 11,600 -540 Descending FlightAware
15:53 48.1040 -122.1410 28° Northeast 266 306 11,100 -1,020 Descending FlightAware
15:53 48.1210 -122.1070 53° Northeast 256 295 10,700 -840 Descending FlightAware
15:54 48.1250 -122.0340 85° East 232 267 10,200 -660 Descending FlightAware
15:55 48.1230 -121.9860 94° East 202 232 9,900 -300 Descending FlightAware
15:55 48.1210 -121.9390 94° East 200 230 9,900  Level FlightAware
15:56 48.1190 -121.8960 94° East 201 231 9,900  Level FlightAware
15:56 48.1160 -121.8510 96° East 202 232 9,900 60 Level FlightAware
15:57 48.1140 -121.8070 94° East 201 231 10,000 60 Climbing FlightAware
15:57 48.1130 -121.7630 92° East 202 232 10,000  Level FlightAware
15:58 48.1100 -121.6900 93° East 202 232 10,000 60 Level FlightAware
15:59 48.1030 -121.6400 102° East 216 249 10,100 -120 Climbing FlightAware
15:59 48.0970 -121.5880 100° East 268 308 9,900 -240 Descending FlightAware
16:00 48.0900 -121.5240 99° East 311 358 9,900 60 Level FlightAware
16:00 48.0830 -121.4590 99° East 314 361 10,000 60 Climbing FlightAware
16:01 48.0760 -121.3930 99° East 314 361 10,000  Level FlightAware
16:02 48.0690 -121.3280 99° East 317 365 10,000  Level FlightAware
16:02 48.0600 -121.2460 99° East 316 364 10,000  Level FlightAware
16:03 48.0520 -121.1590 98° East 318 366 10,000  Level FlightAware
16:03 48.0430 -121.0750 99° East 319 367 10,000  Level FlightAware
16:05 48.0300 -120.9390 98° East 316 364 10,000  Level FlightAware
16:05 48.0290 -120.8990 92° East 313 360 10,000  Level FlightAware
16:05 48.0280 -120.8250 91° East 313 360 10,000  Level FlightAware
16:06 48.0270 -120.7810 92° East 313 360 10,000  Level FlightAware
16:06 48.0270 -120.7370 90° East 313 360 10,000  Level FlightAware
16:07 48.0260 -120.6930 92° East 313 360 10,000  Level FlightAware
16:07 48.0353 -120.6428 92° East 231 266 10,000  Level Seattle Center
16:08 48.0347 -120.5617 91° East 211 243 10,000  Level Seattle Center
16:09 48.0253 -120.4794 100° East 204 235 10,000  Level Seattle Center
16:10 48.0144 -120.3992 101° East 201 231 10,000  Level Seattle Center
16:12 48.0078 -120.3169 97° East 199 229 10,100  Climbing Seattle Center
16:13 48.0053 -120.2350 93° East 199 229 10,100  Level Seattle Center
16:14 48.0047 -120.1517 91° East 199 229 10,100  Level Seattle Center
16:15 48.0042 -120.0689 91° East 199 229 10,100  Level Seattle Center
16:16 48.0039 -119.9864 90° East 200 230 10,100  Level Seattle Center
16:17 48.0053 -119.9036 89° East 200 230 10,100  Level Seattle Center
16:18 48.0014 -119.8197 94° East 203 234 10,100  Level Seattle Center
16:19 47.9958 -119.7358 96° East 204 235 10,100  Level Seattle Center
16:20 47.9903 -119.6361 95° East 202 232 10,100  Level Seattle Center
16:21 47.9797 -119.5533 101° East 204 235 10,100  Level Seattle Center
16:22 47.9742 -119.4689 96° East 205 236 10,100  Level Seattle Center
16:23 47.9681 -119.3850 96° East 204 235 10,100  Level Seattle Center
16:24 47.9633 -119.3008 95° East 204 235 10,100  Level Seattle Center
16:25 47.9569 -119.2175 97° East 203 234 10,100  Level Seattle Center
16:26 47.9497 -119.1342 97° East 203 234 10,100 -60 Level Seattle Center
16:27 47.9422 -119.0514 98° East 202 232 10,000 -120 Descending Seattle Center
16:28 47.9386 -118.9625 93° East 213 245 9,900 -120 Descending Seattle Center
16:29 47.9336 -118.8747 95° East 214 246 9,800  Descending Seattle Center
16:30 47.9278 -118.7875 96° East 213 245 9,900 60 Climbing Seattle Center
16:31 47.9197 -118.6828 97° East 213 245 10,000  Climbing Seattle Center
16:32 47.9111 -118.5964 98° East 212 244 10,000 -60 Level Seattle Center
16:33 47.9019 -118.5094 99° East 213 245 9,900 -60 Descending Seattle Center
16:34 47.8939 -118.4236 98° East 212 244 9,900  Level Seattle Center
16:35 47.8900 -118.3392 94° East 205 236 9,900  Level Seattle Center
16:36 47.8858 -118.2522 94° East 210 242 9,900  Level Seattle Center
16:37 47.8764 -118.1675 99° East 209 241 10,000  Climbing Seattle Center
16:38 47.8694 -118.0822 97° East 207 238 9,900 -60 Descending Seattle Center
16:39 47.8597 -117.9978 100° East 207 238 9,900 -120 Level Seattle Center
16:40 47.8478 -117.9133 102° East 208 239 9,700 -120 Descending Seattle Center
16:41 47.8369 -117.8294 101° East 208 239 9,700 120 Level Seattle Center
16:42 47.8364 -117.7428 91° East 210 242 10,000 60 Climbing Seattle Center
16:43 47.8392 -117.6386 88° East 210 242 9,900 -60 Descending Seattle Center
16:44 47.8303 -117.5517 99° East 214 246 9,900  Level Seattle Center
16:45 47.8236 -117.4647 96° East 213 245 9,900  Level Seattle Center
16:46 47.8178 -117.3758 96° East 214 246 9,900  Level Seattle Center
16:47 47.8144 -117.2889 93° East 211 243 9,900 -60 Level Seattle Center
16:48 47.8131 -117.2000 91° East 213 245 9,800  Descending Seattle Center
16:49 47.8131 -117.1100 90° East 215 247 9,900 180 Climbing Seattle Center
16:50 47.8150 -117.0211 88° East 215 247 10,200 1,080 Climbing Seattle Center
16:51 47.7928 -116.9181 108° East 243 280 12,100 1,620 Climbing Seattle Center
16:52 47.7625 -116.8067 112° Southeast 312 359 13,600 2,040 Climbing Seattle Center
16:53 47.7378 -116.6767 106° East 324 373 16,400 2,580 Climbing Seattle Center
16:54 47.7239 -116.5411 99° East 333 383 19,000 2,520 Climbing Seattle Center
16:55 47.7106 -116.4011 98° East 340 391 21,600 1,440 Climbing Seattle Center
16:56 47.6978 -116.2514 97° East 358 412 22,000 180 Climbing Seattle Center
16:57 47.6808 -116.0494 97° East 405 466 22,000 -180 Level Seattle Center
16:58 47.6608 -115.8861 100° East 405 466 21,700  Descending Seattle Center
16:59 47.6019 -115.7492 122° Southeast 413 475 22,000 60 Climbing Seattle Center
17:00 47.5056 -115.8425 213° Southwest 456 525 21,900 -60 Descending Seattle Center
17:01 47.5350 -116.0189 284° West 452 520 21,900  Level Seattle Center
17:02 47.5847 -116.1861 294° West 446 513 21,900 -60 Level Seattle Center
17:03 47.6347 -116.3669 292° West 469 540 21,800  Descending Seattle Center
17:04 47.6856 -116.5478 293° West 478 550 21,900  Climbing Seattle Center
17:05 47.7378 -116.7258 294° West 477 549 21,900 -300 Level Seattle Center
17:07 47.7508 -116.9575 275° West 479 551 21,400 -60 Descending Seattle Center
17:08 47.7556 -117.1517 272° West 480 552 21,800 240 Climbing Seattle Center
17:09 47.7597 -117.3583 272° West 504 580 22,000 120 Climbing Seattle Center
17:10 47.7653 -117.5667 272° West 510 587 22,100  Climbing Seattle Center
17:11 47.7703 -117.7744 272° West 508 585 22,000 -120 Descending Seattle Center
17:12 47.7769 -117.9839 273° West 509 586 21,900 -120 Descending Seattle Center
17:13 47.7878 -118.1911 275° West 507 583 21,800 120 Descending Seattle Center
17:14 47.7933 -118.4428 272° West 508 585 22,200 180 Climbing Seattle Center
17:15 47.8000 -118.6525 273° West 510 587 22,200  Level Seattle Center
17:16 47.8061 -118.8619 273° West 510 587 22,200  Level Seattle Center
17:21 47.9660 -120.0470 273° West 500 575 22,400  Climbing FlightAware
17:22 47.9760 -120.1600 278° West 502 578 22,200 -300 Descending FlightAware
17:23 48.0030 -120.3760 281° West 494 568 22,000 -180 Descending FlightAware
17:24 48.0160 -120.4840 280° West 494 568 22,000  Level FlightAware
17:25 48.0400 -120.6690 281° West 499 574 22,000  Level FlightAware
17:25 48.0580 -120.8150 281° West 494 568 22,000  Level FlightAware
17:26 48.0730 -121.0250 276° West 495 570 22,000  Level FlightAware
17:27 48.0820 -121.1810 275° West 493 567 22,000  Level FlightAware
17:28 48.0940 -121.3760 275° West 492 566 22,000  Level FlightAware
17:29 48.1010 -121.4840 276° West 494 568 22,000  Level FlightAware
17:29 48.1090 -121.6000 276° West 493 567 22,000  Level FlightAware
17:30 48.1160 -121.7030 276° West 489 563 22,000 60 Level FlightAware
17:31 48.1300 -121.9130 276° West 494 568 22,100  Climbing FlightAware
17:32 48.1400 -122.0820 275° West 490 564 22,000 -300 Descending FlightAware
17:33 48.1520 -122.2960 275° West 489 563 21,600 -240 Descending FlightAware
17:34 48.1610 -122.4890 274° West 472 543 21,600 240 Level FlightAware
17:35 48.1130 -122.6580 247° West 463 533 22,100 360 Climbing FlightAware
17:35 48.0770 -122.6690 192° South 463 533 22,100 -120 Level FlightAware
17:36 48.0010 -122.5700 139° Southeast 484 557 22,000 -120 Descending FlightAware
17:36 47.9980 -122.5180 95° East 497 572 22,000  Level FlightAware
17:37 48.0010 -122.3190 89° East 500 575 22,000 -120 Level FlightAware
17:37 48.0050 -122.1950 87° East 498 573 21,900 -120 Descending FlightAware
17:38 48.0070 -122.1000 88° East 499 574 21,900 240 Level FlightAware
17:39 48.0120 -121.9630 87° East 503 579 22,200 120 Climbing FlightAware
17:39 48.0140 -121.8510 88° East 501 577 22,100 -120 Descending FlightAware
17:40 48.0160 -121.7470 88° East 499 574 22,100 -120 Level FlightAware
17:41 48.0230 -121.5420 87° East 499 574 22,000  Descending FlightAware
17:42 48.0280 -121.3560 88° East 499 574 22,200 60 Climbing FlightAware
17:42 48.0320 -121.2260 87° East 500 575 22,100 -120 Descending FlightAware
17:43 48.0380 -121.0460 87° East 497 572 22,100 -180 Level FlightAware
17:44 48.0440 -120.9190 86° East 498 573 21,900 -300 Descending FlightAware
17:44 48.0510 -120.7940 85° East 498 573 21,800 -120 Descending FlightAware
17:45 48.0620 -120.6040 85° East 495 570 21,800  Level FlightAware
17:46 48.0760 -120.4150 84° East 492 566 21,900 60 Climbing FlightAware
17:47 48.0780 -120.2150 89° East 498 573 22,000 120 Climbing FlightAware
17:48 48.0700 -120.1210 97° East 495 570 22,100  Climbing FlightAware
17:49 48.0550 -119.9230 96° East 499 574 22,000  Descending FlightAware
17:49 48.0490 -119.8400 96° East 497 572 22,100 60 Climbing FlightAware
17:50 48.0360 -119.6270 95° East 497 572 22,100  Level FlightAware
17:51 48.0280 -119.4930 95° East 497 572 22,100  Level FlightAware
17:52 48.0220 -119.3880 95° East 497 572 22,100  Level FlightAware
17:52 48.0160 -119.2810 95° East 497 572 22,100  Level FlightAware
17:53 48.0100 -119.1730 95° East 497 572 22,100 -60 Level FlightAware
17:54 47.9689 -118.7819 95° East 486 559 22,000 -60 Descending Seattle Center
17:55 47.9406 -118.5828 102° East 490 564 22,000  Level Seattle Center
17:56 47.9083 -118.3858 104° East 491 565 22,000 -120 Level Seattle Center
17:57 47.8842 -118.1878 100° East 487 560 21,800 -60 Descending Seattle Center
17:58 47.8556 -117.9919 102° East 486 559 21,900  Climbing Seattle Center
17:59 47.8369 -117.8239 99° East 418 481 21,900  Level Seattle Center
18:00 47.8228 -117.6750 98° East 369 425 21,900  Level Seattle Center
18:01 47.8092 -117.5256 98° East 365 420 22,000  Climbing Seattle Center
18:02 47.7992 -117.3750 96° East 364 419 22,000 -60 Level Seattle Center
18:03 47.7883 -117.2233 96° East 365 420 21,900  Descending Seattle Center
18:04 47.7767 -117.0708 96° East 366 421 22,000  Climbing Seattle Center
18:05 47.7650 -116.9206 97° East 364 419 22,000  Level Seattle Center
18:07 47.7492 -116.7044 96° East 435 501 22,000  Level Seattle Center
18:08 47.7364 -116.5078 95° East 471 542 22,000  Level Seattle Center
18:09 47.7183 -116.3125 98° East 476 548 22,000 -60 Level Seattle Center
18:10 47.7067 -116.1469 96° East 408 470 21,900  Descending Seattle Center
18:11 47.6964 -115.9992 96° East 369 425 22,000  Climbing Seattle Center
18:12 47.6856 -115.8533 96° East 359 413 22,000 -60 Level Seattle Center
18:13 47.7611 -115.8328 10° North 385 443 21,900  Descending Seattle Center
18:14 47.7497 -116.0289 265° West 486 559 22,000  Climbing Seattle Center
18:15 47.7603 -116.2392 274° West 507 583 21,900 -120 Descending Seattle Center
18:16 47.7811 -116.4439 279° West 506 582 21,800  Descending Seattle Center
18:17 47.7933 -116.6219 276° West 452 520 21,900 -1,200 Climbing Seattle Center
18:18 47.8089 -116.8089 277° West 391 450 19,400 -2,880 Descending Seattle Center
18:19 47.8250 -116.9567 279° West 373 429 16,100 -3,420 Descending Seattle Center
18:20 47.8386 -117.0939 278° West 344 396 12,500 -3,060 Descending Seattle Center
18:21 47.8461 -117.2228 275° West 320 368 9,900 -1,320 Descending Seattle Center
18:22 47.8442 -117.3306 269° West 255 293 9,900  Level Seattle Center
18:23 47.8417 -117.4203 268° West 222 255 9,900  Level Seattle Center
18:24 47.8400 -117.5061 268° West 211 243 10,000  Climbing Seattle Center
18:25 47.8389 -117.5933 269° West 212 244 9,900 -60 Descending Seattle Center
18:26 47.8394 -117.6800 271° West 210 242 9,900 -180 Level Seattle Center
18:27 47.8517 -117.7825 280° West 212 244 9,600 -180 Descending Seattle Center
18:28 47.8706 -117.8633 289° West 209 241 9,600 240 Level Seattle Center
18:29 47.8742 -117.9500 274° West 210 242 10,200 60 Climbing Seattle Center
18:30 47.8836 -118.0353 279° West 210 242 9,800 -120 Descending Seattle Center
18:31 47.8942 -118.1208 280° West 210 242 10,000 180 Climbing Seattle Center
18:32 47.8981 -118.2069 274° West 209 241 10,200 -60 Climbing Seattle Center
18:33 47.9019 -118.2933 274° West 208 239 9,900 -120 Descending Seattle Center
18:34 47.9053 -118.3817 273° West 213 245 10,000  Climbing Seattle Center
18:35 47.9119 -118.4658 277° West 207 238 9,900 -60 Descending Seattle Center
18:36 47.9128 -118.5511 271° West 206 237 9,900 60 Level Seattle Center
18:37 47.9194 -118.6542 276° West 210 242 10,100 60 Climbing Seattle Center
18:38 47.9206 -118.7400 271° West 208 239 10,100 -120 Level Seattle Center
18:39 47.9231 -118.8267 272° West 211 243 9,900  Descending Seattle Center
18:40 47.9236 -118.9133 271° West 210 242 10,100 120 Climbing Seattle Center
18:41 47.9233 -118.9975 270° West 206 237 10,200 -120 Climbing Seattle Center
18:42 47.9292 -119.1092 274° West 276 318 9,900 -180 Descending Seattle Center
18:43 47.9403 -119.2453 277° West 325 374 9,900  Level Seattle Center
18:44 47.9469 -119.3831 274° West 333 383 9,900 -60 Level Seattle Center
18:45 47.9553 -119.5172 275° West 328 377 9,800 -60 Descending Seattle Center
18:46 47.9667 -119.6528 277° West 329 379 9,800 60 Level Seattle Center
18:47 47.9744 -119.7889 275° West 330 380 10,000 120 Climbing Seattle Center
18:48 47.9839 -119.9525 275° West 333 383 10,100  Climbing Seattle Center
18:49 47.9917 -120.0908 275° West 334 384 10,100  Level Seattle Center
18:50 48.0003 -120.2269 275° West 333 383 10,100  Level Seattle Center
18:51 48.0058 -120.3625 274° West 331 381 10,100  Level Seattle Center
18:52 48.0092 -120.4986 272° West 329 379 10,200  Climbing Seattle Center
18:53 48.0094 -120.6344 270° West 328 377 10,100 -60 Descending Seattle Center
18:54 47.9494 -120.6067 163° South 349 402 10,100 60 Level Seattle Center
18:55 47.9636 -120.4661 81° East 348 400 10,300 60 Climbing Seattle Center
18:56 47.9686 -120.3250 87° East 347 399 10,300  Level Seattle Center
18:57 47.9628 -120.1833 93° East 347 399 10,300 -60 Level Seattle Center
18:58 47.9336 -120.0175 105° East 343 395 10,200 -120 Descending Seattle Center
18:59 47.9100 -119.8833 105° East 337 388 10,100 -120 Descending Seattle Center
19:00 47.8975 -119.7464 98° East 335 386 10,000 -120 Descending Seattle Center
19:02 47.8819 -119.6108 100° East 333 383 9,900 -60 Descending Seattle Center
19:03 47.8653 -119.4739 100° East 336 387 9,900  Level Seattle Center
19:04 47.8519 -119.3383 98° East 333 383 9,900 240 Level Seattle Center
19:05 47.8458 -119.2111 94° East 316 364 10,500 1,260 Climbing Seattle Center
19:06 47.8053 -119.1086 120° Southeast 312 359 12,500 2,220 Climbing Seattle Center
19:07 47.7489 -119.1975 227° Southwest 343 395 15,100 1,680 Climbing Seattle Center
19:08 47.7583 -119.3861 274° West 388 447 16,000 120 Climbing Seattle Center
19:13 47.8010 -120.2810 274° West 380 437 16,000  Level FlightAware
19:14 47.8080 -120.4030 275° West 380 437 16,000  Level FlightAware
19:15 47.8190 -120.5840 275° West 382 440 16,000  Level FlightAware
19:16 47.8280 -120.7060 276° West 380 437 16,000  Level FlightAware
19:17 47.8630 -120.8500 290° West 378 435 16,000  Level FlightAware
19:18 47.8870 -120.9450 291° West 377 434 16,000 -120 Level FlightAware
19:18 47.9100 -121.0350 291° West 376 433 15,900 -120 Descending FlightAware
19:19 47.9270 -121.1240 286° West 378 435 15,900 -120 Level FlightAware
19:19 47.9190 -121.1940 260° West 377 434 15,800 -1,020 Descending FlightAware
19:20 47.9100 -121.2760 261° West 373 429 14,900 -1,920 Descending FlightAware
19:21 47.9020 -121.4030 265° West 366 421 13,200 -2,040 Descending FlightAware
19:21 47.8970 -121.5040 266° West 359 413 11,900 -1,200 Descending FlightAware
19:22 47.8900 -121.6400 266° West 307 353 11,200 -660 Descending FlightAware
19:23 47.8650 -121.7330 248° West 301 346 10,700 -960 Descending FlightAware
19:24 47.8130 -121.8040 223° Southwest 286 329 9,600 -1,440 Descending FlightAware
19:25 47.7840 -121.8420 221° Southwest 274 315 8,800 -2,040 Descending FlightAware
19:25 47.7580 -121.8930 233° Southwest 265 305 7,400 -2,460 Descending FlightAware
19:25 47.7560 -121.9230 264° West 264 304 6,700 -2,280 Descending FlightAware
19:26 47.7550 -121.9520 267° West 258 297 6,200 -2,100 Descending FlightAware
19:26 47.7530 -122.0000 266° West 253 291 5,200 -1,560 Descending FlightAware
19:27 47.7520 -122.0460 268° West 246 283 4,800 -780 Descending FlightAware
19:27 47.7500 -122.0970 267° West 228 262 4,500 -900 Descending FlightAware
19:28 47.7480 -122.1460 267° West 223 257 3,900 -1,080 Descending FlightAware
19:28 47.7470 -122.1820 268° West 224 258 3,500 -1,140 Descending FlightAware
19:29 47.7460 -122.2300 268° West 224 258 2,900 -1,200 Descending FlightAware
19:29 47.7450 -122.2690 268° West 224 258 2,400 -1,020 Descending FlightAware
19:29 47.7400 -122.3050 258° West 226 260 2,100 -420 Descending FlightAware
19:30 47.7290 -122.3320 239° Southwest 218 251 2,100  Level FlightAware
19:30 47.7140 -122.3660 237° Southwest 214 246 2,100  Level FlightAware
19:31 47.6870 -122.3860 207° Southwest 211 243 2,100  Level FlightAware
19:31 47.6640 -122.3960 196° South 201 231 2,100  Level FlightAware
19:31 47.6500 -122.3990 188° South 192 221 2,100 -180 Level FlightAware
19:32 47.6280 -122.3870 160° South 172 198 2,000 -480 Descending FlightAware
19:32 47.6140 -122.3740 148° Southeast 158 182 1,700 -900 Descending FlightAware
19:33 47.5960 -122.3580 149° Southeast 143 165 1,200 -960 Descending FlightAware
19:33 47.5870 -122.3510 152° Southeast 139 160 1,000 -720 Descending FlightAware
19:33 47.5760 -122.3410 148° Southeast 140 161 800 -720 Descending FlightAware
19:34 47.5630 -122.3300 150° Southeast 141 162 500 -360 Descending FlightAware
19:34 47.5500 -122.3190 150° Southeast 141 162 500 -240 Level FlightAware
19:35 47.5178 -122.2900 150° Southeast 141 162 200 -360 Descending Seattle Center
19:37 47.5167 -122.3000 234° Southwest  Level FlightAware Approximate